Location: Kergrach
(48.3833°N, 4.5167°W)
Time: 09:05:38
(UTC+00:00)

COSMOS 2428 - Pass Details

Date: 18 February 2020
Orbit: 846 x 856 km, 70.9° (Epoch: 10 April)

Event Time Altitude Azimuth Distance (km) Brightness Sun altitude
Exits shadow 04:16:37 23° 352° (N) 1,731 4.3 -31.0°
Drops below altitude 10° 04:19:22 10° 14° (NNE) 2,500 5.5 -30.6°
Sets 04:22:07 0° 25° (NNE) 3,440 6.4 -30.2°
